GAOFEN-12 04

Last updated on Fri Apr 25 2025 00:02:26 GMT+0000 (Coordinated Universal Time)

1 57654U 23123A 25113.93791703 .00002641 00000+0 34721-3 0 9991 2 57654 97.9115 33.1158 0003092 69.1880 290.9663 14.81056248 90618
UTC large
Height (km)
Speed (km/s)
/
Latitude / Longitude
Inclination (degrees)
Orbital Period (minutes)
Azimuth
Elevation
Range (km)
Doppler Factor

Next 0 passes for location: London (51.5072 / 0.1276)

Sorry there are no passes over London.